sat.trackr.live / text

‹ back to catalog

ONEWEB-0249

NORAD 48967 · 2021-060A

PAYLOAD ACTIVE UNKNOWN

§ Identity

Operator
Country
UK
Launch date
2021-07-01
Launch site
VOSTO
Launch vehicle
Mass (kg)
RCS (m²)

Purposes: comms

External: N2YO · Heavens-Above · Gunter

§ Orbital elements

Epoch: 2026-09-20T04:49:33.363840Z

Period
109.37 min
Inclination
87.9151°
Eccentricity
0.0001931
Mean motion
13.16592872 rev/d
Perigee alt
1,196.3 km
Apogee alt
1,199.2 km
Semi-major
7,575.9 km
B*
-9.9942e-5
RAAN
209.9148°
Arg perigee
74.5140°
Mean anomaly
285.6204°
Rev number
25,211

§ Raw data

ONEWEB-02491 48967U 21060A   26263.20108060 -.00000025  00000+0 -99942-4 0  99942 48967  87.9151 209.9148 0001931  74.5140 285.6204 13.16592872252117

JSON: /api/v1/satellites/48967 · /tle

For live sub-satellite position, see the globe view (requires WebGL).

§ Visibility from observer

Set your observer location to see the next 7 days of passes ≥ 10°. The values pass through the URL so the page stays shareable.

No JS? Fill the form by hand. The geolocation button needs JavaScript.